Change the Weather History Date:

Wednesday, January 22, 2014

  Actual Average Record
Temperature  
Mean Temperature 14 °F -  
Max Temperature 28 °F 35 °F 58 °F (1992)
Min Temperature 0 °F 14 °F -11 °F (1966)
Degree Days  
Heating Degree Days 51    
Moisture  
Dew Point 6 °F    
Average Humidity 61    
Maximum Humidity 77    
Minimum Humidity 41    
Precipitation  
Precipitation 0.00 in - - ()
Sea Level Pressure  
Sea Level Pressure 30.27 in    
Wind  
Wind Speed 16 mph (NNW)    
Max Wind Speed 31 mph    
Max Gust Speed 38 mph    
Visibility 9 miles    
Events Snow    
Averages and records for this station are not official NWS values.
T = Trace of Precipitation, MM = Missing Value Source: NWS Daily Summary

Daily Weather History Graph

Daily Weather History Graph

Search for Another Location

Airport or City:

Trip Planner

Search our weather history database for the weather conditions in past years. The results will help you decide how hot, cold, wet, or windy it might be!

Date:

Astronomy

Jan. 22, 2014 Rise Set
Actual Time 7:45 AM CST 5:27 PM CST
Civil Twilight 7:15 AM CST 5:57 PM CST
Nautical Twilight 6:41 AM CST 6:31 PM CST
Astronomical Twilight 6:08 AM CST 7:04 PM CST
Moon No Moon Rise 10:41 AM CST (1/22)
Length of Visible Light 10h 42m
Length of Day
9h 42m
Waning Gibbous, 65% of the Moon is Illuminated
Jan 22
Waning Gibbous
Jan 23
Last Quarter
Jan 30
New
Feb 6
First Quarter
Feb 14
Full

Hourly Weather History & Observations

Time (CST) Temp. Windchill Dew Point Humidity Pressure Visibility Wind Dir Wind Speed Gust Speed Precip Events Conditions
12:54 AM 26.1 °F 14.5 °F 15.1 °F 63% 30.09 in 10.0 mi North 13.8 mph - N/A   Overcast
1:54 AM 26.1 °F 18.4 °F 15.1 °F 63% 30.09 in 10.0 mi NNW 6.9 mph - N/A   Overcast
2:22 AM 26.1 °F 16.8 °F 16.0 °F 66% 30.05 in 10.0 mi NW 9.2 mph - N/A   Overcast
2:54 AM 28.0 °F 14.6 °F 16.0 °F 61% 30.09 in 10.0 mi NW 20.7 mph 26.5 mph N/A   Overcast
3:37 AM 26.1 °F 11.6 °F 14.0 °F 60% 30.07 in 10.0 mi NW 21.9 mph 34.5 mph N/A   Mostly Cloudy
3:52 AM 26.6 °F 12.0 °F 14.0 °F 59% 30.07 in 10.0 mi NW 23.0 mph 29.9 mph N/A   Overcast
3:54 AM 25.0 °F 10.2 °F 12.9 °F 60% 30.11 in 10.0 mi NW 21.9 mph 29.9 mph N/A   Overcast
4:54 AM 19.9 °F 2.5 °F 9.0 °F 62% 30.14 in 10.0 mi NNW 25.3 mph 31.1 mph N/A   Overcast
5:54 AM 19.0 °F 5.6 °F 8.1 °F 62% 30.17 in 10.0 mi NNW 13.8 mph - N/A   Overcast
6:45 AM 15.1 °F 4.2 °F 7.0 °F 70% 30.14 in 10.0 mi NW 8.1 mph - N/A   Scattered Clouds
6:54 AM 14.0 °F 5.1 °F 6.1 °F 71% 30.19 in 10.0 mi NNW 5.8 mph - N/A   Partly Cloudy
7:54 AM 12.9 °F 5.2 °F 7.0 °F 77% 30.16 in 10.0 mi WSW 4.6 mph - N/A   Scattered Clouds
8:54 AM 17.1 °F - 9.0 °F 71% 30.17 in 10.0 mi Calm Calm - N/A   Overcast
9:54 AM 19.9 °F 7.9 °F 10.9 °F 68% 30.19 in 10.0 mi NW 11.5 mph - N/A   Overcast
10:54 AM 21.0 °F 11.4 °F 10.9 °F 65% 30.20 in 10.0 mi NW 8.1 mph - N/A   Overcast
11:54 AM 23.0 °F 11.7 °F 12.0 °F 63% 30.21 in 8.0 mi North 11.5 mph - N/A   Overcast
12:19 PM 23.0 °F 9.2 °F 12.9 °F 65% 30.18 in 2.5 mi North 17.3 mph - 0.00 in Snow Light Snow
12:28 PM 23.0 °F 8.3 °F 14.0 °F 68% 30.18 in 1.8 mi North 19.6 mph - 0.00 in Snow Light Snow
12:44 PM 24.1 °F 11.0 °F 15.1 °F 69% 30.18 in 3.0 mi North 16.1 mph - 0.00 in Snow Light Snow
12:54 PM 24.1 °F 11.5 °F 15.1 °F 69% 30.22 in 7.0 mi North 15.0 mph - 0.00 in Snow Light Snow
1:27 PM 24.1 °F 9.4 °F 12.0 °F 60% 30.19 in 10.0 mi North 20.7 mph - 0.00 in   Overcast
1:46 PM 21.9 °F 5.5 °F 12.9 °F 68% 30.20 in 1.8 mi North 24.2 mph 29.9 mph 0.00 in Snow Light Snow
1:54 PM 21.9 °F 4.5 °F 10.9 °F 63% 30.24 in 4.0 mi NNW 27.6 mph 32.2 mph 0.00 in Snow Light Snow
2:01 PM 24.1 °F 6.6 °F 9.0 °F 53% 30.21 in 9.0 mi NNW 31.1 mph 36.8 mph 0.00 in   Overcast
2:54 PM 19.9 °F 1.8 °F 7.0 °F 57% 30.29 in 10.0 mi North 27.6 mph - 0.00 in   Overcast
3:05 PM 17.1 °F -2.4 °F 6.1 °F 62% 30.26 in 2.0 mi North 28.8 mph 36.8 mph 0.00 in Snow Light Snow
3:15 PM 16.0 °F -4.1 °F 3.0 °F 57% 30.28 in 9.0 mi North 29.9 mph 38.0 mph 0.00 in Snow Light Snow
3:49 PM 15.8 °F -3.4 °F -4.0 °F 41% 30.32 in 10.0 mi NNW 26.5 mph 38.0 mph 0.00 in   Scattered Clouds
3:54 PM 16.0 °F -2.5 °F -4.0 °F 41% 30.36 in 10.0 mi NW 24.2 mph 34.5 mph 0.00 in   Scattered Clouds
4:54 PM 10.9 °F -7.0 °F -6.0 °F 47% 30.43 in 10.0 mi North 18.4 mph - N/A   Scattered Clouds
5:54 PM 6.1 °F -15.7 °F -9.9 °F 48% 30.48 in 10.0 mi NNW 24.2 mph - N/A   Clear
6:54 PM 3.9 °F -17.1 °F -11.0 °F 50% 30.53 in 10.0 mi North 20.7 mph 29.9 mph N/A   Clear
7:54 PM 3.0 °F -17.8 °F -11.0 °F 52% 30.57 in 10.0 mi NNW 19.6 mph 28.8 mph N/A   Clear
8:54 PM 1.0 °F -18.7 °F -11.0 °F 57% 30.60 in 10.0 mi NNW 16.1 mph - N/A   Clear
9:54 PM -0.0 °F -21.3 °F -11.9 °F 57% 30.62 in 10.0 mi North 18.4 mph - N/A   Clear
10:54 PM -0.0 °F -20.1 °F -11.9 °F 57% 30.65 in 10.0 mi NNW 16.1 mph - N/A   Clear
11:54 PM -0.9 °F -21.2 °F -13.0 °F 57% 30.69 in 10.0 mi NNW 16.1 mph - N/A   Clear